Home   Weather   Cambridge   Past weeks

Flag for Canada Past Weather in Cambridge, Ontario, Canada — Yesterday and Last 2 Weeks

45 °F

Mostly cloudy.

Feels Like: 41 °F
Forecast: 39 / 46 °F
Wind: 7 mph from Northwest

Location: Waterloo Well

Current Time: Oct 24, 2016 at 2:56:10 AM

Latest Report: Oct 24, 2016 at 2:03 AM

Visibility: 9 mi

Pressure: 29.91 "Hg

Humidity: 87%

Dew Point: 41 °F

Location of CambridgeLocation

Past Weather in Cambridge — Graph


Cambridge Temperature Yesterday

Maximum temperature yesterday: 55 °F (at 3:00 PM)
Minimum temperature yesterday: 39 °F (at 1:00 AM)
Average temperature yesterday: 48 °F

High & Low Weather Summary for the Past Weeks

High73 °F (Oct 12, 3:00 PM)100% (Oct 9, 8:00 AM)30.50 "Hg (Oct 9, 8:00 AM)
Low28 °F (Oct 10, 7:00 AM)31% (Oct 10, 5:00 PM)29.58 "Hg (Oct 18, 12:00 PM)
Average52 °F81%30.06 "Hg
* Reported Oct 9 1:00 AM — Oct 24 1:00 AM, Cambridge, Weather by CustomWeather, © 2016

Note: Actual official high and low records may vary slightly from our data, if they occured in-between our weather recording intervals... More about our weather records


Cambridge Weather History for the Previous 24 Hours

Scroll right to see more
Time TempWeatherWind HumidityBarometerVisibility
1:00 AM
Mon, Oct 24
43 °FPassing clouds.6 mph87%29.88 "Hg9 mi
12:00 AM46 °FPassing clouds.7 mph82%29.86 "Hg9 mi
11:00 PM
Sun, Oct 23
46 °FOvercast.8 mph82%29.84 "Hg9 mi
10:00 PM46 °FMostly cloudy.6 mph87%29.83 "Hg9 mi
9:00 PM46 °FPartly cloudy.7 mph82%29.86 "Hg9 mi
8:00 PM48 °FPassing clouds.2 mph76%29.85 "Hg9 mi
7:00 PM50 °FMostly cloudy.6 mph71%29.87 "Hg9 mi
6:00 PM54 °FMostly cloudy.10 mph63%29.86 "Hg9 mi
5:00 PM55 °FBroken clouds.15 mph59%29.85 "Hg9 mi
4:00 PM54 °FBroken clouds.12 mph63%29.87 "Hg9 mi
3:00 PM55 °FBroken clouds.17 mph59%29.87 "Hg9 mi
2:00 PM54 °FCloudy.17 mph63%29.88 "Hg9 mi
1:00 PM54 °FBroken clouds.18 mph63%29.89 "Hg9 mi
12:00 PM52 °FPartly sunny.12 mph77%29.90 "Hg9 mi
11:00 AM50 °FBroken clouds.15 mph82%29.92 "Hg9 mi
10:00 AM48 °FMostly cloudy.7 mph87%29.93 "Hg9 mi
9:51 AM48 °FMostly cloudy.8 mph87%29.93 "Hg9 mi
9:00 AM45 °FMostly cloudy.3 mph93%29.92 "Hg9 mi
8:00 AM43 °FMostly cloudy.3 mph93%29.91 "Hg9 mi
7:00 AM45 °FMostly cloudy.3 mph93%29.90 "Hg9 mi
6:00 AM45 °FLight rain. Mostly cloudy.10 mph87%29.90 "Hg9 mi
5:50 AM45 °FLight rain. Overcast.10 mph87%29.90 "Hg9 mi
5:00 AM45 °FLight rain. Overcast.12 mph87%29.89 "Hg9 mi
4:00 AM45 °FMostly cloudy.13 mph81%29.88 "Hg9 mi
3:00 AM43 °FOvercast.13 mph81%29.87 "Hg9 mi
2:00 AM43 °FPassing clouds.10 mph76%29.87 "Hg9 mi
Weather by CustomWeather, © 2016

See weather overviewHow to use our weather pages